Content
SEND FEEDBACK

Daily
Averages
Monthly
Summary
United States of America

INARAJAN, GUAM


Home > North America > United States > Guam
Elevation: 85 meters     Latitude: 13 18N     Longitude: 144 44E

WEATHER
 
SELECT A DAY
Number of Records: 342,429;   Date Range: 1/1/95 - 9/3/14
 
SHARE

PRINT THIS DATA

[ ← Previous Day ]
WEATHER ALMANAC - 11 JULY, 2013
[ Next Day → ]
[ °F ]   °C
Weather ElementAverageHighLow
Temperature27.2 °C30.3 °C (11:55 am) (3:55 pm)
Dewpoint24.4 °C27 °C (12:16 pm) (7:00 pm)
Humidity84.9 %94 % (9:44 pm)77 % (2:55 pm)
Barometer987.5 hPa1012.5 hPa (10:55 pm) (7:00 pm)
Wind Speed17.9 km/h24.1 km/h (12:55 pm)
Wind Gust29.6 km/h (2:55 pm)
Weather ElementAverage
Visibility16.1 km
Wind DirectionENE (70.7 °)

Weather ElementTotal
Precipitation---
Heating Degree Days12.1 (Base 18.3)
Averaged from 44 records on 11 July, 2013
WEATHER CONDITIONS BREAKOUT
WIND DIRECTION BREAKOUT
WEATHER BY HOUR - 11 JULY, 2013
[ °F ]   °C
Local TimeTemperatureDewpointHumidityBarometerVisibilityWind DirectionWind SpeedGust SpeedPrecipitationEventsConditions
1:55 AM26.9 °C24.5 °C87 %1009.1 hPa16.1 kmESE (110°)14.8 km/hClear
2:55 AM26.8 °C24.6 °C88 %1008.8 hPa16.1 kmEast (100°)13 km/hScattered Clouds
3:55 AM26.7 °C24.6 °C88 %1009.1 hPa16.1 kmEast (100°)13 km/hPartly Cloudy
4:55 AM26.6 °C24.5 °C88 %1009.1 hPa16.1 kmEast (90°)14.8 km/hPartly Cloudy
5:49 AM27 °C25 °C89 %1009.5 hPa16.1 kmEast (80°)13 km/hMostly Cloudy
5:55 AM26.7 °C24.7 °C89 %1009.5 hPa16.1 kmEast (80°)11.1 km/hMostly Cloudy
5:56 AM27 °C25 °C89 %1009.5 hPa16.1 kmEast (80°)11.1 km/hMostly Cloudy
6:55 AM27.3 °C24.7 °C86 %1010.2 hPa16.1 kmEast (90°)11.1 km/hPartly Cloudy
7:55 AM28.9 °C25.3 °C81 %1010.2 hPa16.1 kmEast (100°)14.8 km/hScattered Clouds
8:55 AM28.6 °C25.2 °C82 %1010.5 hPa16.1 kmEast (90°)16.7 km/hScattered Clouds
9:55 AM29.1 °C25.8 °C82 %1010.5 hPa16.1 kmEast (80°)16.7 km/hScattered Clouds
10:00 AM29 °C26 °C84 %1010.5 hPa16.1 kmEast (80°)20.4 km/hMostly Cloudy
10:49 AM30 °C26 °C79 %1010.2 hPa16.1 kmENE (70°)16.7 km/hScattered Clouds
10:55 AM29.8 °C26.1 °C80 %1010.2 hPa16.1 kmENE (60°)16.7 km/hScattered Clouds
11:55 AM30.3 °C26.5 °C80 %1009.8 hPa16.1 kmENE (70°)20.4 km/hScattered Clouds
12:00 PM30 °C26 °C79 %1009.8 hPa16.1 kmENE (70°)18.5 km/hMostly Cloudy
12:04 PM30 °C26 °C79 %1009.8 hPa16.1 kmENE (60°)20.4 km/hScattered Clouds
12:16 PM30 °C27 °C84 %1009.5 hPa16.1 kmEast (80°)22.2 km/hMostly Cloudy
12:22 PM30 °C26 °C79 %1009.5 hPa16.1 kmENE (70°)20.4 km/hMostly Cloudy
12:55 PM30.1 °C26.1 °C79 %1009.5 hPa16.1 kmENE (70°)24.1 km/hScattered Clouds
1:55 PM30 °C26.2 °C80 %1009.1 hPa16.1 kmENE (60°)22.2 km/hPartly Cloudy
2:18 PM30 °C26 °C79 %1009.1 hPa16.1 kmENE (60°)18.5 km/hMostly Cloudy
2:25 PM30 °C26 °C79 %1009.1 hPa16.1 kmENE (60°)18.5 km/hScattered Clouds
2:26 PM30 °C26 °C79 %1009.1 hPa16.1 kmENE (70°)18.5 km/hMostly Cloudy
2:28 PM30 °C26 °C79 %1009.1 hPa16.1 kmENE (70°)20.4 km/hScattered Clouds
2:55 PM29.8 °C25.3 °C77 %1008.8 hPa16.1 kmENE (60°)22.2 km/h29.6 km/hPartly Cloudy
3:55 PM-17.8 °C-17.8 °CNorth
4:55 PM29 °C25.3 °C80 %1009.8 hPa16.1 kmENE (60°)18.5 km/h
5:55 PM28.3 °C25.4 °C84 %1010.5 hPa16.1 kmEast (80°)16.7 km/hPartly Cloudy
6:55 PM27.4 °C25 °C87 %1011.2 hPa16.1 kmENE (70°)16.7 km/hPartly Cloudy
7:55 PM27.3 °C25.5 °C90 %1011.5 hPa16.1 kmEast (80°)24.1 km/hPartly Cloudy
8:55 PM27.2 °C25.4 °C90 %1012.2 hPa16.1 kmENE (70°)18.5 km/hPartly Cloudy
9:11 PM27 °C25 °C89 %1012.2 hPa16.1 kmENE (60°)22.2 km/hMostly Cloudy
9:15 PM27 °C25 °C89 %1012.2 hPa16.1 kmENE (70°)20.4 km/hScattered Clouds
9:16 PM27 °C25 °C89 %1012.2 hPa16.1 kmENE (60°)16.7 km/hMostly Cloudy
9:21 PM27 °C25 °C89 %1012.2 hPa16.1 kmENE (60°)20.4 km/hScattered Clouds
9:30 PM27 °C25 °C89 %1012.2 hPa16.1 kmENE (60°)18.5 km/hMostly Cloudy
9:35 PM27 °C25 °C89 %1012.2 hPa16.1 kmENE (60°)18.5 km/hRainLight Rain
9:44 PM27 °C26 °C94 %1012.2 hPa16.1 kmEast (80°)24.1 km/hScattered Clouds
9:55 PM27 °C25.5 °C91 %1012.2 hPa16.1 kmENE (70°)18.5 km/h0 mmPartly Cloudy
10:55 PM26.9 °C24.8 °C88 %1012.5 hPa16.1 kmENE (60°)16.7 km/hScattered Clouds
11:11 PM27 °C25 °C89 %1012.2 hPa16.1 kmENE (60°)18.5 km/hMostly Cloudy
11:54 PM27 °C25 °C89 %1012.2 hPa16.1 kmNE (50°)14.8 km/hScattered Clouds
11:55 PM27.1 °C25 °C88 %1012.2 hPa16.1 kmNE (50°)13 km/hScattered Clouds
Hourly data recorded from PGUA, located 0 kilometers away from Inarajan, Guam







STORIES FROM OUR PARTNERS